GW1454 Weather Reports


Display with metric or nautical units.
time (UTC)temp
F
wind
direction
speed
MPH
gust
MPH
rain 1hr
in
rain 24hr
in
rain mn
in
humidity
%
barometer
mb
20260902192544 95 0 0.0 7.0 0.00 0.00 0.00 51 1018.7
20260902192046 95 107 1.0 7.0 0.00 0.00 0.00 50 1018.7
20260902191611 94 86 2.0 7.0 0.00 0.00 0.00 49 1018.8
20260902191044 95 155 2.0 7.0 0.00 0.00 0.00 51 1018.9
20260902190545 94 98 0.0 5.0 0.00 0.00 0.00 50 1018.9
20260902190054 95 140 1.0 3.0 0.00 0.00 0.00 50 1018.9
20260902185545 94 113 1.0 4.0 0.00 0.00 0.00 51 1018.9
20260902185045 94 189 1.0 6.0 0.00 0.00 0.00 52 1019.1
20260902184604 95 123 1.0 7.0 0.00 0.00 0.00 51 1019.2
20260902184045 94 69 1.0 7.0 0.00 0.00 0.00 51 1019.1
20260902183549 94 0 0.0 4.0 0.00 0.00 0.00 50 1019.2
20260902183112 94 14 1.0 6.0 0.00 0.00 0.00 52 1019.3
20260902182548 93 0 0.0 7.0 0.00 0.00 0.00 55 1019.3
20260902182045 93 80 3.0 8.0 0.00 0.00 0.00 51 1019.4
20260902181557 93 83 3.0 8.0 0.00 0.00 0.00 51 1019.3
20260902181044 93 169 1.0 5.0 0.00 0.00 0.00 53 1019.4
20260902180544 93 86 3.0 7.0 0.00 0.00 0.00 51 1019.4
20260902180057 93 70 3.0 7.0 0.00 0.00 0.00 52 1019.3
20260902175545 94 119 1.0 4.0 0.00 0.00 0.00 55 1019.3
20260902175045 94 0 0.0 5.0 0.00 0.00 0.00 53 1019.4
20260902174559 94 0 1.0 5.0 0.00 0.00 0.00 50 1019.4
20260902174047 93 350 0.0 4.0 0.00 0.00 0.00 51 1019.6
20260902173545 93 0 0.0 4.0 0.00 0.00 0.00 51 1019.5
20260902173102 93 107 1.0 4.0 0.00 0.00 0.00 51 1019.6
20260902172545 93 0 0.0 3.0 0.00 0.00 0.00 53 1019.7
20260902172045 93 184 0.0 7.0 0.00 0.00 0.00 58 1019.8
20260902171610 92 126 1.0 7.0 0.00 0.00 0.00 52 1019.8
20260902171045 92 126 3.0 8.0 0.00 0.00 0.00 55 1019.7
20260902170545 92 47 1.0 8.0 0.00 0.00 0.00 54 1019.9
20260902170107 93 167 0.0 4.0 0.00 0.00 0.00 51 1019.9
20260902165546 93 113 1.0 4.0 0.00 0.00 0.00 53 1020.0
20260902165049 92 128 1.0 7.0 0.00 0.00 0.00 54 1020.0
20260902164607 92 109 2.0 7.0 0.00 0.00 0.00 56 1020.1
20260902164048 92 116 1.0 5.0 0.00 0.00 0.00 55 1020.0
20260902163545 92 76 1.0 6.0 0.00 0.00 0.00 56 1020.1
20260902163102 91 167 2.0 6.0 0.00 0.00 0.00 55 1020.2
20260902162548 91 98 1.0 6.0 0.00 0.00 0.00 56 1020.2
20260902162047 91 119 1.0 6.0 0.00 0.00 0.00 59 1020.4
20260902161607 91 99 1.0 6.0 0.00 0.00 0.00 62 1020.3
20260902161045 91 69 2.0 6.0 0.00 0.00 0.00 57 1020.2
20260902160547 91 190 2.0 6.0 0.00 0.00 0.00 57 1020.4
20260902160106 91 0 1.0 5.0 0.00 0.00 0.00 60 1020.4
20260902155549 91 123 2.0 5.0 0.00 0.00 0.00 57 1020.3
20260902155045 91 0 1.0 4.0 0.00 0.00 0.00 58 1020.3
20260902154610 91 69 0.0 4.0 0.00 0.00 0.00 58 1020.3
20260902154046 91 157 1.0 3.0 0.00 0.00 0.00 59 1020.4
20260902153547 91 200 0.0 3.0 0.00 0.00 0.00 64 1020.4
20260902153104 91 0 0.0 2.0 0.00 0.00 0.00 61 1020.4
20260902152546 90 172 0.0 2.0 0.00 0.00 0.00 60 1020.4
20260902152046 90 173 0.0 3.0 0.00 0.00 0.00 59 1020.4
20260902151611 90 0 0.0 3.0 0.00 0.00 0.00 60 1020.4
20260902151046 90 249 0.0 2.0 0.00 0.00 0.00 62 1020.4
20260902150545 90 163 0.0 2.0 0.00 0.00 0.00 64 1020.4
20260902145545 89 288 1.0 4.0 0.00 0.00 0.00 63 1020.3
20260902145045 88 286 1.0 4.0 0.00 0.00 0.00 62 1020.2
20260902144601 88 201 1.0 4.0 0.00 0.00 0.00 64 1020.2
20260902144045 88 170 1.0 4.0 0.00 0.00 0.00 65 1020.2
20260902143545 88 0 0.0 6.0 0.00 0.00 0.00 67 1020.1
20260902143057 88 119 1.0 6.0 0.00 0.00 0.00 66 1020.1
20260902142547 87 0 0.0 2.0 0.00 0.00 0.00 66 1020.1
20260902142046 87 198 0.0 2.0 0.00 0.00 0.00 68 1020.1
20260902141602 86 0 0.0 2.0 0.00 0.00 0.00 68 1020.0
20260902141045 86 159 0.0 3.0 0.00 0.00 0.00 72 1020.0
20260902140545 86 0 0.0 3.0 0.00 0.00 0.00 71 1020.0
20260902140105 86 155 0.0 1.0 0.00 0.00 0.00 71 1020.1
20260902135545 86 0 0.0 1.0 0.00 0.00 0.00 72 1020.1
20260902135046 86 0 0.0 1.0 0.00 0.00 0.00 72 1020.2
20260902134559 85 0 0.0 1.0 0.00 0.00 0.00 72 1020.1
20260902134045 85 0 0.0 1.0 0.00 0.00 0.00 74 1020.0
20260902133547 84 0 0.0 1.0 0.00 0.00 0.00 75 1020.1
20260902133103 84 0 0.0 1.0 0.00 0.00 0.00 74 1020.0
20260902132547 84 0 0.0 1.0 0.00 0.00 0.00 75 1020.1
20260902132045 83 0 0.0 1.0 0.00 0.00 0.00 78 1020.2
20260902131604 82 0 0.0 1.0 0.00 0.00 0.00 76 1020.3
20260902131047 83 0 0.0 1.0 0.00 0.00 0.00 79 1020.3
20260902130547 82 0 0.0 1.0 0.00 0.00 0.00 79 1020.2
20260902130104 81 0 0.0 0.0 0.00 0.00 0.00 80 1020.4
20260902125545 81 0 0.0 0.0 0.00 0.00 0.00 82 1020.2
20260902125045 80 0 0.0 0.0 0.00 0.00 0.00 83 1020.3
20260902124559 79 0 0.0 0.0 0.00 0.00 0.00 84 1020.3
20260902124046 79 0 0.0 0.0 0.00 0.00 0.00 84 1020.4
20260902123545 78 0 0.0 0.0 0.00 0.00 0.00 85 1020.3
20260902123107 78 0 0.0 0.0 0.00 0.00 0.00 87 1020.3
20260902122547 77 0 0.0 0.0 0.00 0.00 0.00 89 1020.4
20260902122049 76 0 0.0 0.0 0.00 0.00 0.00 90 1020.4
20260902121602 75 0 0.0 0.0 0.00 0.00 0.00 93 1020.4
20260902121047 74 0 0.0 0.0 0.00 0.00 0.00 93 1020.3
20260902120545 73 0 0.0 0.0 0.00 0.00 0.00 95 1020.4
20260902115546 72 0 0.0 0.0 0.00 0.00 0.00 96 1020.2
20260902115051 71 0 0.0 0.0 0.00 0.00 0.00 96 1020.2
20260902114618 70 0 0.0 0.0 0.00 0.00 0.00 96 1020.2
20260902114046 70 0 0.0 0.0 0.00 0.00 0.00 97 1020.1
20260902113547 69 0 0.0 0.0 0.00 0.00 0.00 96 1019.9
20260902113105 69 0 0.0 0.0 0.00 0.00 0.00 96 1019.8
20260902112546 69 0 0.0 0.0 0.00 0.00 0.00 96 1019.7
20260902112046 69 0 0.0 0.0 0.00 0.00 0.00 96 1019.7
20260902111607 69 0 0.0 0.0 0.00 0.00 0.00 96 1019.7
20260902111045 69 0 0.0 0.0 0.00 0.00 0.00 96 1019.8
20260902110547 69 0 0.0 0.0 0.00 0.00 0.00 96 1019.7
20260902105549 69 0 0.0 0.0 0.00 0.00 0.00 96 1019.6
20260902105045 69 0 0.0 1.0 0.00 0.00 0.00 96 1019.6
20260902104557 69 0 0.0 1.0 0.00 0.00 0.00 96 1019.7
20260902104045 69 134 0.0 1.0 0.00 0.00 0.00 96 1019.5
20260902103544 69 0 0.0 0.0 0.00 0.00 0.00 96 1019.4
20260902103106 69 0 0.0 0.0 0.00 0.00 0.00 96 1019.5
20260902102548 69 0 0.0 0.0 0.00 0.00 0.00 96 1019.4
20260902102045 70 0 0.0 0.0 0.00 0.00 0.00 96 1019.5
20260902101600 70 0 0.0 0.0 0.00 0.00 0.00 96 1019.4
20260902101045 70 0 0.0 0.0 0.00 0.00 0.00 96 1019.5
20260902100544 70 0 0.0 0.0 0.00 0.00 0.00 95 1019.4
20260902100123 70 0 0.0 0.0 0.00 0.00 0.00 95 1019.4
20260902095545 70 0 0.0 0.0 0.00 0.00 0.00 95 1019.3
20260902095045 70 0 0.0 0.0 0.00 0.00 0.00 95 1019.3
20260902094615 70 0 0.0 0.0 0.00 0.00 0.00 95 1019.5
20260902094045 70 0 0.0 0.0 0.00 0.00 0.00 95 1019.4
20260902093545 70 0 0.0 0.0 0.00 0.00 0.00 95 1019.4
20260902093110 70 0 0.0 0.0 0.00 0.00 0.00 95 1019.5
20260902092545 70 0 0.0 0.0 0.00 0.00 0.00 95 1019.4
20260902092045 70 0 0.0 0.0 0.00 0.00 0.00 95 1019.3
20260902091548 70 0 0.0 0.0 0.00 0.00 0.00 95 1019.3
20260902091045 70 0 0.0 0.0 0.00 0.00 0.00 95 1019.4
20260902090545 70 0 0.0 0.0 0.00 0.00 0.00 95 1019.4
20260902090055 70 0 0.0 0.0 0.00 0.00 0.00 95 1019.3
20260902085544 70 0 0.0 0.0 0.00 0.00 0.00 95 1019.2
20260902085044 70 0 0.0 0.0 0.00 0.00 0.00 95 1019.2
20260902084603 70 0 0.0 0.0 0.00 0.00 0.00 95 1019.1
20260902084049 70 0 0.0 0.0 0.00 0.00 0.00 94 1019.1
20260902083544 70 0 0.0 0.0 0.00 0.00 0.00 95 1019.1
20260902083101 71 0 0.0 0.0 0.00 0.00 0.00 95 1019.1
20260902082545 71 0 0.0 0.0 0.00 0.00 0.00 95 1019.1
20260902082048 71 0 0.0 0.0 0.00 0.00 0.00 94 1019.0
20260902081559 71 0 0.0 0.0 0.00 0.00 0.00 94 1018.9
20260902081045 71 0 0.0 0.0 0.00 0.00 0.00 95 1018.9
20260902080546 71 0 0.0 0.0 0.00 0.00 0.00 94 1019.0
20260902080109 71 0 0.0 0.0 0.00 0.00 0.00 94 1018.9
20260902075544 71 0 0.0 0.0 0.00 0.00 0.00 94 1018.9
20260902075045 71 0 0.0 0.0 0.00 0.00 0.00 94 1018.9
20260902074604 71 0 0.0 0.0 0.00 0.00 0.00 94 1018.9
20260902074045 71 0 0.0 0.0 0.00 0.00 0.00 94 1018.9
20260902073545 71 0 0.0 0.0 0.00 0.00 0.00 94 1018.9
20260902073121 71 0 0.0 0.0 0.00 0.00 0.00 94 1018.9
20260902072549 71 0 0.0 0.0 0.00 0.00 0.00 94 1018.9
20260902072046 71 0 0.0 0.0 0.00 0.00 0.00 94 1018.9
20260902071557 71 0 0.0 0.0 0.00 0.00 0.00 94 1018.9
20260902071046 71 0 0.0 0.0 0.00 0.00 0.00 94 1019.1
20260902070545 71 0 0.0 0.0 0.00 0.00 0.00 94 1018.9
20260902070108 71 0 0.0 0.0 0.00 0.00 0.00 94 1018.9
20260902065546 71 0 0.0 0.0 0.00 0.00 0.00 94 1019.0
20260902065046 71 0 0.0 1.0 0.00 0.00 0.00 94 1018.9
20260902064608 71 0 0.0 1.0 0.00 0.00 0.00 93 1018.9
20260902064046 71 0 0.0 1.0 0.00 0.00 0.00 94 1019.1
20260902063545 71 0 0.0 0.0 0.00 0.00 0.00 93 1019.1
20260902063100 72 0 0.0 0.0 0.00 0.00 0.00 93 1019.2
20260902062549 72 0 0.0 0.0 0.00 0.00 0.00 93 1019.3
20260902062046 72 0 0.0 0.0 0.00 0.00 0.00 93 1019.2
20260902061610 72 0 0.0 0.0 0.00 0.00 0.00 93 1019.2
20260902061047 72 0 0.0 0.0 0.00 0.00 0.00 92 1019.3
20260902060546 72 0 0.0 0.0 0.00 0.00 0.00 93 1019.1
20260902060058 72 0 0.0 0.0 0.00 0.00 0.00 93 1019.1
20260902055545 72 0 0.0 0.0 0.00 0.00 0.00 92 1019.1
20260902055046 72 0 0.0 0.0 0.00 0.00 0.00 92 1019.2
20260902054551 72 0 0.0 0.0 0.00 0.00 0.00 92 1019.1
20260902054045 72 0 0.0 0.0 0.00 0.00 0.00 92 1019.1
20260902053547 72 0 0.0 0.0 0.00 0.00 0.00 92 1018.9
20260902053107 73 0 0.0 0.0 0.00 0.00 0.00 92 1019.0
20260902052546 73 0 0.0 0.0 0.00 0.00 0.00 92 1019.0
20260902052050 73 0 0.0 0.0 0.00 0.00 0.00 92 1019.0
20260902051555 73 0 0.0 0.0 0.00 0.00 0.00 92 1018.9
20260902051046 73 0 0.0 0.0 0.00 0.00 0.00 91 1018.8
20260902050546 73 0 0.0 0.0 0.00 0.00 0.00 91 1018.9
20260902050113 73 0 0.0 0.0 0.00 0.00 0.00 91 1018.8
20260902045545 73 0 0.0 0.0 0.00 0.00 0.00 91 1018.9
20260902045045 73 0 0.0 0.0 0.00 0.00 0.00 91 1018.8
20260902044603 73 0 0.0 0.0 0.00 0.00 0.00 91 1018.8
20260902044045 73 0 0.0 0.0 0.00 0.00 0.00 91 1018.8
20260902043545 73 0 0.0 0.0 0.00 0.00 0.00 91 1018.8
20260902043101 73 0 0.0 0.0 0.00 0.00 0.00 91 1018.7
20260902042545 74 0 0.0 0.0 0.00 0.00 0.00 90 1018.8
20260902042045 74 0 0.0 0.0 0.00 0.00 0.00 90 1018.7
20260902041607 74 0 0.0 0.0 0.00 0.00 0.00 90 1018.6
20260902041044 74 0 0.0 0.0 0.00 0.00 0.00 90 1018.7
20260902040546 74 0 0.0 0.0 0.00 0.00 0.00 90 1018.7
20260902040056 74 0 0.0 0.0 0.00 0.00 0.00 90 1018.7
20260902035544 74 0 0.0 0.0 0.00 0.00 0.00 90 1018.8
20260902035044 74 0 0.0 0.0 0.00 0.00 0.00 90 1018.9
20260902034551 74 0 0.0 0.0 0.00 0.00 0.00 90 1018.9
20260902034045 74 0 0.0 0.0 0.00 0.00 0.00 90 1018.8
20260902033546 74 0 0.0 0.0 0.00 0.00 0.00 90 1018.7
20260902033101 74 0 0.0 0.0 0.00 0.00 0.00 90 1018.7
20260902032546 74 0 0.0 0.0 0.00 0.00 0.00 90 1018.9
20260902032045 74 0 0.0 0.0 0.00 0.00 0.00 90 1018.8
20260902031615 74 0 0.0 0.0 0.00 0.00 0.00 90 1018.8
20260902031045 74 0 0.0 0.0 0.00 0.00 0.00 90 1018.8
20260902030544 74 0 0.0 0.0 0.00 0.00 0.00 90 1018.8
20260902030052 74 0 0.0 0.0 0.00 0.00 0.00 90 1018.7
20260902025544 74 0 0.0 0.0 0.00 0.00 0.00 90 1018.7
20260902025047 75 0 0.0 0.0 0.00 0.00 0.00 90 1018.7
20260902024604 75 0 0.0 0.0 0.00 0.00 0.00 90 1018.8
20260902024044 75 0 0.0 0.0 0.00 0.00 0.00 90 1018.9
20260902023545 75 0 0.0 0.0 0.00 0.00 0.00 90 1018.7
20260902023104 75 0 0.0 0.0 0.00 0.00 0.00 90 1018.7
20260902022545 75 0 0.0 0.0 0.00 0.00 0.00 89 1018.7
20260902022045 75 0 0.0 0.0 0.00 0.00 0.00 89 1018.6
20260902021602 75 0 0.0 0.0 0.00 0.00 0.00 89 1018.6
20260902021045 75 0 0.0 0.0 0.00 0.00 0.00 89 1018.5
20260902020545 75 0 0.0 0.0 0.00 0.00 0.00 88 1018.5
20260902020052 76 0 0.0 0.0 0.00 0.00 0.00 88 1018.4
20260902015545 76 0 0.0 1.0 0.00 0.00 0.00 88 1018.3
20260902015046 76 0 0.0 1.0 0.00 0.00 0.00 88 1018.1
20260902014552 76 0 0.0 0.0 0.00 0.00 0.00 88 1018.0
20260902014046 76 0 0.0 0.0 0.00 0.00 0.00 88 1018.0
20260902013547 76 0 0.0 0.0 0.00 0.00 0.00 87 1017.9
20260902013100 76 0 0.0 0.0 0.00 0.00 0.00 87 1017.9
20260902012544 76 0 0.0 0.0 0.00 0.00 0.00 87 1018.0
20260902012044 76 0 0.0 0.0 0.00 0.00 0.00 87 1017.9
20260902011606 77 0 0.0 0.0 0.00 0.00 0.00 86 1017.8
20260902011045 77 0 0.0 0.0 0.00 0.00 0.00 86 1017.9
20260902010545 77 0 0.0 0.0 0.00 0.00 0.00 86 1017.8
20260902010109 77 0 0.0 0.0 0.00 0.00 0.00 85 1017.8
20260902005544 77 0 0.0 0.0 0.00 0.00 0.00 85 1017.7
20260902005045 77 0 0.0 0.0 0.00 0.00 0.00 84 1017.6
20260902004604 78 0 0.0 0.0 0.00 0.00 0.00 84 1017.7
20260902004045 78 0 0.0 0.0 0.00 0.00 0.00 84 1017.6
20260902003545 78 0 0.0 0.0 0.00 0.00 0.00 83 1017.4
20260902003100 78 0 0.0 0.0 0.00 0.00 0.00 83 1017.5
20260902002549 79 0 0.0 0.0 0.00 0.00 0.00 83 1017.6
20260902002045 79 0 0.0 0.0 0.00 0.00 0.00 83 1017.5
20260902001610 79 0 0.0 0.0 0.00 0.00 0.00 82 1017.5
20260902001046 80 0 0.0 0.0 0.00 0.00 0.00 82 1017.5
20260902000547 80 0 0.0 0.0 0.00 0.00 0.00 81 1017.5
20260901235545 81 0 0.0 0.0 0.00 0.00 0.00 80 1017.6
20260901235044 81 0 0.0 0.0 0.00 0.00 0.00 79 1017.6
20260901234609 82 0 0.0 0.0 0.00 0.00 0.00 79 1017.6
20260901234045 82 0 0.0 0.0 0.00 0.00 0.00 77 1017.6
20260901233545 83 0 0.0 0.0 0.00 0.00 0.00 76 1017.6
20260901233109 83 0 0.0 0.0 0.00 0.00 0.00 75 1017.7
20260901232551 84 0 0.0 0.0 0.00 0.00 0.00 72 1017.7
20260901232045 84 0 0.0 0.0 0.00 0.00 0.00 69 1017.8
20260901231554 85 0 0.0 0.0 0.00 0.00 0.00 68 1017.9
20260901231044 85 0 0.0 0.0 0.00 0.00 0.00 67 1017.9
20260901230545 86 0 0.0 0.0 0.00 0.00 0.00 66 1017.9
20260901230116 87 0 0.0 0.0 0.00 0.00 0.00 63 1017.8
20260901225549 87 0 0.0 0.0 0.00 0.00 0.00 62 1017.9
20260901225045 88 0 0.0 0.0 0.00 0.00 0.00 61 1017.9
20260901224557 89 0 0.0 0.0 0.00 0.00 0.00 59 1018.0
20260901224045 91 0 0.0 1.0 0.00 0.00 0.00 58 1017.9
20260901223546 92 0 0.0 1.0 0.00 0.00 0.00 54 1017.9
20260901223054 93 0 0.0 1.0 0.00 0.00 0.00 53 1017.8
20260901222545 94 0 0.0 1.0 0.00 0.00 0.00 50 1017.9
20260901222046 94 0 0.0 1.0 0.00 0.00 0.00 48 1017.8
20260901221557 94 0 0.0 2.0 0.00 0.00 0.00 52 1017.7
20260901221046 94 134 0.0 2.0 0.00 0.00 0.00 49 1017.8
20260901220547 94 134 0.0 2.0 0.00 0.00 0.00 49 1017.7
20260901220109 94 121 0.0 3.0 0.00 0.00 0.00 48 1017.7
20260901215547 94 120 1.0 3.0 0.00 0.00 0.00 47 1017.6
20260901215046 94 140 0.0 3.0 0.00 0.00 0.00 48 1017.6
20260901214606 95 111 0.0 3.0 0.00 0.00 0.00 46 1017.6
20260901214045 94 0 0.0 6.0 0.00 0.00 0.00 48 1017.7
20260901213546 94 148 0.0 6.0 0.00 0.00 0.00 47 1017.7
20260901213137 94 116 2.0 6.0 0.00 0.00 0.00 46 1017.8
20260901212547 94 124 2.0 6.0 0.00 0.00 0.00 47 1017.8
20260901212049 94 138 1.0 6.0 0.00 0.00 0.00 45 1017.8
20260901211553 94 146 1.0 6.0 0.00 0.00 0.00 44 1018.0
20260901211048 94 138 2.0 6.0 0.00 0.00 0.00 48 1017.9
20260901210545 94 139 1.0 6.0 0.00 0.00 0.00 44 1018.0
20260901210051 94 146 2.0 6.0 0.00 0.00 0.00 44 1017.9
20260901205547 94 137 1.0 4.0 0.00 0.00 0.00 45 1017.9
20260901205046 94 119 2.0 3.0 0.00 0.00 0.00 46 1017.9
20260901204602 95 104 0.0 3.0 0.00 0.00 0.00 43 1017.9
20260901204047 94 121 1.0 6.0 0.00 0.00 0.00 45 1018.0
20260901203549 94 84 1.0 6.0 0.00 0.00 0.00 46 1018.0
20260901203118 94 115 2.0 8.0 0.00 0.00 0.00 45 1018.0
20260901202545 94 121 1.0 8.0 0.00 0.00 0.00 48 1018.1
20260901202045 94 132 0.0 4.0 0.00 0.00 0.00 46 1018.0
20260901201558 94 156 1.0 4.0 0.00 0.00 0.00 45 1018.1
20260901201046 94 147 1.0 5.0 0.00 0.00 0.00 46 1018.2
20260901200546 94 160 2.0 5.0 0.00 0.00 0.00 45 1018.2
20260901200107 94 0 0.0 4.0 0.00 0.00 0.00 45 1018.1
20260901195545 94 160 1.0 5.0 0.00 0.00 0.00 44 1018.3
20260901195103 94 115 2.0 6.0 0.00 0.00 0.00 46 1018.3
20260901194606 94 140 2.0 7.0 0.00 0.00 0.00 47 1018.3
20260901194046 94 69 3.0 9.0 0.00 0.00 0.00 46 1018.4
20260901193546 94 143 3.0 9.0 0.00 0.00 0.00 49 1018.4
20260901193102 94 74 2.0 9.0 0.00 0.00 0.00 47 1018.5